[[{"header":{"parameterUnit":"m.s-1","parameterCategory":1,"la1":30.2991,"la2":30.254,"lo1":-89.0895,"lo2":-89.0444,"dy":0.0017,"dx":0.0017,"nx":28,"ny":28,"refTime":"2025-05-22T21:00:00:Z","depth":0,"parameterNumber":2,"parameterNumberName":"U-component_of_WINDS"},"data":[0,0,0,0,0,0,0,0,0,0,0,0,0,0,0,0,0,0,0,0,0,0,0,0,0,0,0,0,0,0,0,0,0,0,0,0,0,0,0,0,0,0,0,0,0,0,0,0,0,0,0,0,0,0,0,0,0,0,1.0394,1.0395,0,1.0462,1.0463,1.0464,1.0486,1.0486,1.0486,1.0485,1.0556,1.0558,1.056,0,0,0,0,0,0,0,0,0,0,0,0,0,1.0286,1.0288,1.0394,1.0395,1.0396,1.0462,1.0463,1.0464,1.0486,1.0486,1.0486,1.0485,1.0555,1.0557,1.056,0,0,0,0,0,0,0,0,0,0,0,0,0,1.0342,1.0289,1.0394,1.0415,1.0418,1.0462,1.0463,1.0464,1.0486,1.0486,1.0485,1.0485,1.0554,1.0557,1.056,1.0589,0,0,1.057,1.0572,0,0,0,0,0,0,0,0,1.0338,1.0345,1.0411,1.0414,1.0417,1.0465,1.0451,1.0506,1.0486,1.046,1.0485,1.0485,1.0526,1.0531,1.0545,1.0593,1.0596,1.0571,1.0572,1.0574,1.0575,0,0,0,0,0,0,0,1.0335,1.0343,1.0421,1.0412,1.0415,1.0422,1.0429,1.0461,1.0495,1.0462,1.0464,1.0472,1.0527,1.0542,1.0547,1.0597,1.057,1.0573,1.0575,1.0577,1.0674,1.0675,0,0,0,0,0,0,1.0327,1.0339,1.0419,1.0423,1.0376,1.0424,1.0432,1.045,1.0495,1.0501,1.0472,1.0473,1.0537,1.0543,1.055,1.0588,1.0574,1.0577,1.0579,1.0673,1.0674,1.0675,0,0,0,0,0,0,1.0324,1.0334,1.0416,1.0382,1.0393,1.0426,1.0446,1.0452,1.0466,1.0502,1.0508,1.0481,1.0537,1.0545,1.058,1.0591,1.0578,1.0581,1.0673,1.0674,1.0675,1.0664,0,0,0,0,0,0,1.0321,1.0333,1.0343,1.0382,1.0395,1.0444,1.0447,1.0453,1.0472,1.0473,1.0512,1.0518,1.0537,1.0575,1.0583,1.0595,1.0584,1.0672,1.0673,1.0674,1.0663,1.0664,1.0665,0,0,0,0,0,1.0317,1.0337,1.0344,1.0353,1.0408,1.0445,1.0452,1.0474,1.0472,1.0484,1.0507,1.0516,1.0588,1.0578,1.0588,1.0601,1.0671,1.0673,1.0674,1.0663,1.0664,1.0665,0,0,0,0,0,0,1.0298,1.0342,1.035,1.0383,1.041,1.0449,1.0463,1.0474,1.0502,1.0502,1.0528,1.0537,1.057,1.0589,1.0577,1.0632,1.063,1.0634,1.0619,1.062,1.0621,1.0616,1.0586,0,0,0,0,0,1.0298,1.0323,1.0361,1.0386,1.0399,1.0429,1.0446,1.0461,1.049,1.0501,1.0527,1.0556,1.0585,1.0604,1.0632,1.0666,1.0676,1.068,1.0681,1.0682,1.0684,1.0706,1.0709,1.068,1.068,1.068,0,0,1.0297,1.0324,1.0339,1.0383,1.0406,1.0433,1.0439,1.0466,1.0487,1.0506,1.054,1.0561,1.0594,1.0629,1.0646,1.0646,1.0695,1.0684,1.0684,1.0686,1.0708,1.071,1.0713,1.0681,1.0681,1.068,0,0,1.031,1.0332,1.0357,1.038,1.0415,1.0435,1.0441,1.0479,1.0493,1.0528,1.0544,1.0569,1.0619,1.0643,1.0661,1.0687,1.0697,1.0695,1.07,1.072,1.0723,1.0725,1.0735,1.0738,1.0698,1.0698,1.0698,0,1.0304,1.0345,1.0368,1.0396,1.0415,1.0435,1.0461,1.0482,1.0525,1.0538,1.0538,1.0602,1.0626,1.0668,1.0674,1.0688,1.0697,1.069,1.072,1.0723,1.0725,1.0735,1.0739,1.0697,1.0697,1.0698,1.0698,0,1.0337,1.0365,1.0381,1.0422,1.0444,1.0471,1.0499,1.0519,1.0532,1.0553,1.059,1.062,1.0656,1.0667,1.068,1.0712,1.0711,1.0715,1.0714,1.0727,1.0737,1.0741,1.0697,1.0697,1.0697,1.0697,0,0,1.0337,1.0393,1.0399,1.0419,1.046,1.0483,1.0511,1.0547,1.0564,1.0593,1.0619,1.0661,1.0666,1.0688,1.0704,1.0722,1.0742,1.0725,1.0726,1.0727,1.0781,1.0778,1.0782,1.075,1.075,1.0751,1.0778,0,1.0356,1.0407,1.043,1.0471,1.0499,1.0519,1.0544,1.0573,1.0594,1.0621,1.0644,1.0675,1.0678,1.0691,1.071,1.0736,1.0753,1.0734,1.0774,1.0775,1.0765,1.0787,1.0783,1.0807,1.0782,1.0783,1.0784,0,1.0383,1.0413,1.0457,1.0498,1.051,1.0532,1.0568,1.0594,1.0628,1.0642,1.0667,1.0683,1.0716,1.0713,1.0759,1.0745,1.0763,1.0779,1.078,1.0784,1.078,1.0792,1.0815,1.0819,1.079,1.0789,1.0789,0,1.038,1.0432,1.0466,1.0482,1.053,1.0545,1.0566,1.0599,1.062,1.0652,1.0666,1.0701,1.0721,1.0748,1.0774,1.0769,1.0818,1.0817,1.0832,1.0831,1.084,1.0839,1.0867,1.0852,1.0852,1.0852,1.0852,0,1.0398,1.0424,1.0465,1.0486,1.0517,1.0544,1.0574,1.0597,1.0627,1.0654,1.0673,1.0698,1.0731,1.076,1.0781,1.0816,1.0825,1.0838,1.0843,1.0836,1.0834,1.0848,1.0847,1.0853,1.0853,1.0852,1.0852,0,1.0399,1.0427,1.0465,1.0508,1.052,1.0541,1.0578,1.06,1.0623,1.0656,1.0666,1.0701,1.0737,1.0766,1.0812,1.0826,1.0864,1.087,1.0853,1.0855,1.0869,1.0867,1.0906,1.0913,1.0893,1.0893,1.0893,0,1.0408,1.0429,1.0475,1.0494,1.0515,1.0545,1.0567,1.0596,1.0618,1.0661,1.0678,1.0715,1.0746,1.0802,1.0833,1.0869,1.0876,1.0888,1.0882,1.0875,1.0877,1.0876,1.0879,1.0888,1.0888,1.0888,1.0888,0,1.0422,1.0436,1.0466,1.0503,1.0529,1.0559,1.0589,1.0604,1.0639,1.0663,1.07,1.0724,1.0773,1.081,1.085,1.0873,1.0887,1.089,1.0895,1.0888,1.0878,1.0885,1.0855,1.0889,1.0888,1.0888,1.0888,1.0888,1.0428,1.0449,1.0485,1.0519,1.0545,1.0574,1.0597,1.0624,1.0655,1.0697,1.0712,1.0751,1.0787,1.0842,1.0865,1.0897,1.0898,1.0906,1.0908,1.0909,1.0909,1.0873,1.0904,1.0904,1.0904,1.0904,1.0904,0,1.0444,1.0469,1.05,1.0543,1.057,1.0582,1.0617,1.0639,1.0673,1.0706,1.0737,1.078,1.0817,1.0852,1.0891,1.091,1.0917,1.0919,1.0918,1.0923,1.0905,1.0896,1.0912,1.0912,1.0912,1.0912,1.0912,1.0912,1.0455,1.0491,1.051,1.056,1.0585,1.0622,1.0642,1.0669,1.0696,1.0743,1.0774,1.0797,1.0831,1.0874,1.0909,1.0918,1.0932,1.0932,1.0943,1.0925,1.0924,1.0923,1.0915,1.0935,1.0935,1.0959,1.0959,1.0959]},{"header":{"parameterUnit":"m.s-1","parameterCategory":1,"la1":30.2991,"la2":30.254,"lo1":-89.0895,"lo2":-89.0444,"dy":0.0017,"dx":0.0017,"nx":28,"ny":28,"refTime":"2025-05-22T21:00:00:Z","depth":0,"parameterNumber":3,"parameterNumberName":"V-component_of_WINDS"},"data":[0,0,0,0,0,0,0,0,0,0,0,0,0,0,0,0,0,0,0,0,0,0,0,0,0,0,0,0,0,0,0,0,0,0,0,0,0,0,0,0,0,0,0,0,0,0,0,0,0,0,0,0,0,0,0,0,0,0,-0.0601,-0.06,0,-0.0579,-0.0579,-0.0579,-0.0564,-0.0564,-0.0564,-0.0564,-0.0541,-0.0541,-0.054,0,0,0,0,0,0,0,0,0,0,0,0,0,-0.0628,-0.0628,-0.0601,-0.06,-0.06,-0.0579,-0.0579,-0.0579,-0.0564,-0.0564,-0.0564,-0.0564,-0.0542,-0.0541,-0.054,0,0,0,0,0,0,0,0,0,0,0,0,0,-0.0613,-0.0628,-0.0601,-0.0591,-0.059,-0.0579,-0.0579,-0.0578,-0.0565,-0.0564,-0.0564,-0.0564,-0.0542,-0.0541,-0.054,-0.0538,0,0,-0.0538,-0.0538,0,0,0,0,0,0,0,0,-0.0614,-0.0612,-0.0592,-0.0591,-0.059,-0.0574,-0.058,-0.0565,-0.0565,-0.0574,-0.0564,-0.0564,-0.0553,-0.0551,-0.0547,-0.0537,-0.0536,-0.0538,-0.0537,-0.0537,-0.0537,0,0,0,0,0,0,0,-0.0615,-0.0612,-0.0592,-0.0592,-0.0591,-0.0587,-0.0584,-0.0577,-0.0564,-0.0573,-0.0572,-0.057,-0.0552,-0.0548,-0.0546,-0.0536,-0.0538,-0.0537,-0.0537,-0.0536,-0.0522,-0.0522,0,0,0,0,0,0,-0.0617,-0.0613,-0.0593,-0.0592,-0.0602,-0.0586,-0.0584,-0.058,-0.0564,-0.0562,-0.057,-0.0569,-0.0549,-0.0547,-0.0546,-0.0541,-0.0537,-0.0536,-0.0536,-0.0522,-0.0522,-0.0522,0,0,0,0,0,0,-0.0618,-0.0616,-0.0594,-0.0602,-0.0599,-0.0586,-0.0581,-0.0579,-0.0575,-0.0562,-0.0559,-0.0568,-0.0549,-0.0547,-0.054,-0.054,-0.0536,-0.0535,-0.0522,-0.0522,-0.0522,-0.0533,0,0,0,0,0,0,-0.0619,-0.0616,-0.0616,-0.0602,-0.0599,-0.0589,-0.0582,-0.0579,-0.0574,-0.0573,-0.056,-0.0557,-0.0549,-0.0541,-0.0539,-0.0539,-0.0535,-0.0522,-0.0522,-0.0522,-0.0533,-0.0534,-0.0535,0,0,0,0,0,-0.062,-0.062,-0.0616,-0.0613,-0.0598,-0.0589,-0.0587,-0.0577,-0.0574,-0.0573,-0.0564,-0.0558,-0.0541,-0.0541,-0.0538,-0.0538,-0.0521,-0.0522,-0.0522,-0.0532,-0.0534,-0.0535,0,0,0,0,0,0,-0.0633,-0.0618,-0.0613,-0.0609,-0.06,-0.0587,-0.0585,-0.0579,-0.0571,-0.057,-0.0558,-0.0555,-0.055,-0.0543,-0.0543,-0.0535,-0.053,-0.053,-0.0539,-0.054,-0.0541,-0.0543,-0.0534,0,0,0,0,0,-0.0636,-0.063,-0.0617,-0.0614,-0.061,-0.0598,-0.0594,-0.0587,-0.0578,-0.0575,-0.0565,-0.0556,-0.0549,-0.0544,-0.0537,-0.0532,-0.0528,-0.053,-0.0531,-0.0532,-0.0532,-0.0528,-0.0529,-0.0523,-0.0523,-0.0523,0,0,-0.0641,-0.0632,-0.0629,-0.0617,-0.0609,-0.0603,-0.0596,-0.059,-0.0585,-0.0574,-0.0567,-0.0559,-0.0548,-0.0542,-0.0539,-0.0537,-0.0533,-0.0532,-0.0533,-0.0532,-0.0528,-0.0529,-0.0529,-0.0523,-0.0523,-0.0523,0,0,-0.0647,-0.064,-0.0636,-0.0629,-0.0618,-0.061,-0.0609,-0.0596,-0.0591,-0.0584,-0.0575,-0.0568,-0.0556,-0.0548,-0.0543,-0.0545,-0.0538,-0.0543,-0.0547,-0.0544,-0.0544,-0.0544,-0.0544,-0.0545,-0.0543,-0.0543,-0.0543,0,-0.0654,-0.0645,-0.0635,-0.063,-0.0624,-0.0613,-0.0609,-0.0603,-0.059,-0.0586,-0.0583,-0.0567,-0.0559,-0.055,-0.0551,-0.0547,-0.0545,-0.0544,-0.0545,-0.0545,-0.0545,-0.0545,-0.0545,-0.0543,-0.0543,-0.0543,-0.0543,0,-0.0655,-0.0649,-0.0647,-0.0635,-0.0629,-0.0624,-0.0613,-0.0608,-0.0602,-0.0594,-0.0586,-0.0576,-0.0565,-0.0563,-0.0557,-0.0553,-0.0552,-0.0547,-0.0543,-0.0547,-0.0546,-0.0546,-0.0544,-0.0544,-0.0544,-0.0543,0,0,-0.0669,-0.065,-0.065,-0.0644,-0.063,-0.0625,-0.062,-0.061,-0.0606,-0.0597,-0.0591,-0.0581,-0.0576,-0.057,-0.0562,-0.0559,-0.056,-0.0554,-0.0554,-0.0555,-0.0555,-0.0558,-0.0558,-0.0556,-0.0555,-0.0555,-0.0556,0,-0.0672,-0.0662,-0.0652,-0.0645,-0.0639,-0.0628,-0.0623,-0.0614,-0.0606,-0.06,-0.0591,-0.0583,-0.0578,-0.0574,-0.057,-0.0561,-0.056,-0.0561,-0.055,-0.0549,-0.0553,-0.0558,-0.0562,-0.0563,-0.0555,-0.0555,-0.0555,0,-0.0675,-0.0667,-0.0659,-0.0646,-0.0643,-0.0638,-0.0628,-0.0622,-0.0611,-0.0605,-0.0598,-0.059,-0.0583,-0.0579,-0.0568,-0.0569,-0.0564,-0.0558,-0.0558,-0.0557,-0.0553,-0.0557,-0.0563,-0.0563,-0.0555,-0.0555,-0.0555,0,-0.0685,-0.0672,-0.0666,-0.0661,-0.0645,-0.0642,-0.0636,-0.0625,-0.0619,-0.061,-0.0606,-0.0596,-0.059,-0.0582,-0.0571,-0.0569,-0.0561,-0.0557,-0.0556,-0.0556,-0.0555,-0.0555,-0.056,-0.0552,-0.0552,-0.0552,-0.0552,0,-0.069,-0.0686,-0.067,-0.0666,-0.0661,-0.0649,-0.0644,-0.0636,-0.0626,-0.062,-0.061,-0.0604,-0.059,-0.0583,-0.0574,-0.0566,-0.0564,-0.0559,-0.0557,-0.056,-0.056,-0.0556,-0.0556,-0.0552,-0.0552,-0.0552,-0.0552,0,-0.0701,-0.069,-0.0682,-0.0668,-0.0664,-0.0661,-0.0648,-0.0643,-0.0635,-0.0627,-0.0625,-0.0611,-0.0601,-0.059,-0.0577,-0.0571,-0.0563,-0.056,-0.0567,-0.0566,-0.0566,-0.0566,-0.0568,-0.0567,-0.056,-0.056,-0.056,0,-0.0704,-0.0701,-0.0686,-0.0681,-0.0675,-0.0667,-0.0661,-0.0649,-0.0644,-0.063,-0.0627,-0.0617,-0.0608,-0.0593,-0.0582,-0.0571,-0.0567,-0.0569,-0.0566,-0.0569,-0.0567,-0.0567,-0.0566,-0.057,-0.057,-0.057,-0.057,0,-0.0711,-0.0706,-0.0698,-0.0688,-0.0682,-0.0673,-0.0664,-0.0661,-0.0647,-0.0641,-0.0631,-0.0624,-0.061,-0.06,-0.0588,-0.058,-0.0572,-0.0571,-0.057,-0.0573,-0.0577,-0.0574,-0.0569,-0.0571,-0.0571,-0.0571,-0.0571,-0.0571,-0.0718,-0.0714,-0.0703,-0.0694,-0.0686,-0.0678,-0.0673,-0.0663,-0.0655,-0.0643,-0.0637,-0.0627,-0.0615,-0.0598,-0.059,-0.0582,-0.0579,-0.0578,-0.0578,-0.0578,-0.0579,-0.0579,-0.058,-0.058,-0.058,-0.058,-0.058,0,-0.0724,-0.0716,-0.0709,-0.0696,-0.0689,-0.0683,-0.0673,-0.0667,-0.0659,-0.0648,-0.064,-0.0628,-0.0618,-0.0605,-0.0594,-0.059,-0.0586,-0.0587,-0.0587,-0.0585,-0.0582,-0.0584,-0.059,-0.059,-0.059,-0.059,-0.059,-0.059,-0.0727,-0.0719,-0.0713,-0.0701,-0.0693,-0.0684,-0.0678,-0.067,-0.0662,-0.0649,-0.0641,-0.0633,-0.0622,-0.0609,-0.0599,-0.0596,-0.0592,-0.0594,-0.0589,-0.0586,-0.0586,-0.0585,-0.0586,-0.0593,-0.0593,-0.0593,-0.0593,-0.0593]}]]